Regional Weather Roundup
Issued by NWS Midland/Odessa, TX

Skip options and go directly to product.
Home | Oldest Version | Next Version | Current Version | All | Text Only | Save Text | Print | Product List | Glossary On

Skip product version selection by date and time.   
242
ASUS44 KMAF 210902
RWRMAF
MIDLAND AREA WEATHER ROUNDUP
NATIONAL WEATHER SERVICE MIDLAND TX
400 AM CDT TUE OCT 21 2014

...IN SOUTHWEST TEXAS AND SOUTHEAST NEW MEXICO...

CITY           SKY/WX    TMP DP  RH WIND       PRES   REMARKS
ALPINE         CLOUDY    59  56  91 CALM      30.17S
ANDREWS        FAIR      58  51  79 S3        30.10S
ARTESIA        NOT AVBL
BIG SPRING     CLEAR     61  54  76 SE8       30.10S
CARLSBAD       CLOUDY    61  57  87 NW7       30.08F
DRYDEN           N/A     65  62  90 N7        30.02F
FORT STOCKTON  PTCLDY    60  58  92 S5        30.08R
GUAD PASS      CLOUDY    54  54 100 E13       30.16F FOG
HOBBS          MOCLDY    55  55 100 CALM      30.12S
MARFA          CLOUDY    55  55 100 CALM      30.14F
MIDLAND AIRPK  PTCLDY    60  53  76 CALM      30.09S
MIDLAND INTL   PTCLDY    60  51  72 CALM      30.08S
ODESSA         PTCLDY    59  51  75 E5        30.09S
PECOS          MOCLDY    62  60  94 NE5       30.06S
PRESIDIO       CLOUDY    65  61  86 N7        30.03S
SEMINOLE       PTCLDY    56  50  82 CALM      30.11S
SNYDER         CLEAR     58  52  81 S5        30.09S
WINK           MOCLDY    61  59  93 CALM      30.06S
$$
...OTHER STATIONS IN TEXAS...

CITY           SKY/WX    TMP DP  RH WIND       PRES   REMARKS
ABILENE        CLEAR     61  54  77 S6        30.07F
AMARILLO       CLEAR     54  51  90 S8        30.11F
AUSTIN         PTCLDY    56  56 100 CALM      30.02F
BROWNSVILLE    CLEAR     72  70  93 CALM      29.90F
CORPUS CHRISTI PTCLDY    73  69  87 NE9       29.95S
DALLAS FTW     PTCLDY    62  58  86 CALM      30.04S
DEL RIO        CLOUDY    69  59  70 E8        30.00F
EL PASO        PTCLDY    59  55  87 N5        30.07F
HOUSTON INT    CLEAR     59  56  89 CALM      30.01S
LUBBOCK        PTCLDY    57  50  77 SW5       30.10F
SAN ANGELO     CLEAR     56  50  80 CALM      30.06F
SAN ANTONIO    PTCLDY    66  58  75 NE3       30.03S
WACO           CLEAR     58  57  97 CALM      30.03F FOG
WICHITA FALLS  NOT AVBL
$$
...OTHER LOCATIONS IN NEW MEXICO...

CITY           SKY/WX    TMP DP  RH WIND       PRES   REMARKS
ALAMAGORDO     NOT AVBL
ALBUQUERQUE    PTCLDY    54  47  77 NW5       30.16F
CANNON AFB     CLEAR     53  51  91 NW5       30.13F
CLOVIS         NOT AVBL
HOLLOMAN AFB   PTCLDY    55  55 100 E3        30.08S
ROSWELL        LGT RAIN  58  56  93 CALM      30.11F
RUIDOSO        CLOUDY    46  46 100 CALM      30.23F
SANTA FE       MOCLDY    48  45  89 SW7       30.21S
TRUTH OR CONSE MOCLDY    55  51  86 NW6       30.10F
TUCUMCARI      PTCLDY    55  47  74 W7        30.11F
$$

USA.gov is the U.S. government's official web portal to all federal, state and local government web resources and services.